Flag for Germany Weather for the Past 2 Weeks in Buchholz in der Nordheide, Lower Saxony, Germany

Now
39 °F

Sprinkles. Partly cloudy.


Feels Like: 30 °F
Forecast: 34 / 42 °F
Wind: 18 mph from West

Location: Hamburg-Fuhlsbuettel

Current Time: Feb 11, 2016 at 5:29:37 AM

Latest Report: Feb 11, 2016 at 4:50 AM


Visibility: 4 mi

Pressure: 29.42 "Hg

Humidity: 93%

Dew point: 37 °F

Location of Buchholz in der NordheideLocation

Historic Weather in Buchholz in der Nordheide — Graph

°F

Buchholz in der Nordheide Temperature Yesterday

Maximum temperature yesterday: 43 °F (at 11:20 PM)
Minimum temperature yesterday: 34 °F (at 12:20 AM)
Average temperature yesterday: 39 °F

High & Low Weather Summary for the Past Weeks

 TemperatureHumidityPressure
High54 °F (Feb 1, 8:20 PM)100% (Jan 27, 6:20 AM)30.18 "Hg (Jan 27, 6:20 AM)
Low34 °F (Jan 31, 1:50 AM)57% (Feb 2, 6:20 PM)28.74 "Hg (Feb 9, 9:50 PM)
Average44 °F84%29.67 "Hg
* Reported Jan 27 4:20 AM — Feb 11 4:20 AM, Buchholz in der Nordheide, Weather by CustomWeather, © 2016

Note: Actual official high and low records may vary slightly from our data, if they occured in-between our weather recording intervals... More about our weather records

Advertising

Buchholz in der Nordheide Weather History for the Previous 24 Hours

 ConditionsComfort  
Time TempWeatherWind HumidityBarometerVisibility
4:20 AM
Thu, Feb 11
39 °FSprinkles. Passing clouds.13 mph100%29.39 "Hg4 mi
3:50 AM39 °FSprinkles. Partly cloudy.12 mph100%29.39 "HgN/A
3:20 AM39 °FSprinkles. Partly cloudy.10 mph93%29.39 "HgN/A
2:50 AM39 °FScattered showers. Partly cloudy.12 mph93%29.36 "HgN/A
2:20 AM41 °FSprinkles. Partly cloudy.10 mph93%29.36 "HgN/A
1:50 AM41 °FScattered showers. Passing clouds.9 mph93%29.36 "HgN/A
1:20 AM41 °FSprinkles. Passing clouds.14 mph93%29.33 "HgN/A
12:50 AM41 °FSprinkles. Passing clouds.13 mph93%29.33 "HgN/A
12:20 AM41 °FSprinkles. Passing clouds.13 mph93%29.30 "HgN/A
11:50 PM
Wed, Feb 10
43 °FScattered showers. Partly cloudy.13 mph93%29.30 "HgN/A
11:20 PM43 °FSprinkles. Passing clouds.14 mph93%29.27 "Hg4 mi
10:50 PM41 °FSprinkles. Passing clouds.14 mph100%29.27 "Hg4 mi
10:20 PM41 °FSprinkles. Partly cloudy.15 mph100%29.27 "Hg3 mi
9:50 PM41 °FSprinkles. Passing clouds.13 mph100%29.24 "Hg3 mi
9:20 PM41 °FSprinkles. Passing clouds.12 mph100%29.24 "Hg4 mi
8:50 PM41 °FSprinkles. Passing clouds.10 mph93%29.24 "Hg4 mi
8:20 PM41 °FSprinkles. Passing clouds.12 mph93%29.24 "Hg4 mi
7:50 PM41 °FSprinkles. Passing clouds.13 mph93%29.24 "Hg5 mi
7:20 PM41 °FSprinkles. Partly cloudy.14 mph93%29.24 "Hg5 mi
6:50 PM41 °FPartly cloudy.10 mph93%29.24 "HgN/A
6:20 PM39 °FSprinkles. Partly cloudy.10 mph93%29.24 "Hg5 mi
5:50 PM39 °FSprinkles. Passing clouds.8 mph93%29.24 "Hg4 mi
5:20 PM39 °FSprinkles. Passing clouds.12 mph93%29.24 "HgN/A
4:50 PM39 °FPartly sunny.13 mph93%29.24 "HgN/A
4:20 PM39 °FPartly sunny.13 mph93%29.24 "HgN/A
3:50 PM39 °FPartly sunny.13 mph93%29.21 "HgN/A
3:20 PM39 °FBroken clouds.13 mph93%29.21 "Hg6 mi
2:50 PM39 °FBroken clouds.13 mph93%29.21 "HgN/A
2:20 PM39 °FBroken clouds.14 mph87%29.21 "HgN/A
1:50 PM39 °FSprinkles. Broken clouds.15 mph87%29.21 "HgN/A
1:20 PM39 °FPartly sunny.16 mph87%29.21 "HgN/A
12:50 PM41 °FPartly sunny.15 mph81%29.21 "HgN/A
12:20 PM39 °FPartly sunny.14 mph87%29.21 "HgN/A
11:50 AM39 °FBroken clouds.14 mph87%29.21 "HgN/A
11:20 AM39 °FBroken clouds.13 mph87%29.21 "HgN/A
10:50 AM39 °FBroken clouds.13 mph87%29.21 "HgN/A
10:20 AM39 °FBroken clouds.13 mph87%29.18 "HgN/A
9:50 AM37 °FPartly sunny.14 mph93%29.18 "HgN/A
9:20 AM37 °FPartly sunny.13 mph93%29.18 "HgN/A
8:50 AM37 °FPartly sunny.13 mph87%29.18 "HgN/A
8:20 AM37 °FPartly sunny.14 mph87%29.18 "HgN/A
7:50 AM36 °FPartly sunny.14 mph93%29.15 "HgN/A
7:20 AM36 °FPassing clouds.15 mph93%29.15 "HgN/A
6:50 AM36 °FPassing clouds.15 mph93%29.12 "HgN/A
6:20 AM36 °FPartly cloudy.15 mph93%29.12 "HgN/A
5:50 AM36 °FPartly cloudy.12 mph93%29.12 "HgN/A
5:20 AM37 °FPassing clouds.13 mph93%29.12 "HgN/A
Weather by CustomWeather, © 2016

See weather overviewHow to use our weather pages